Location: Arrien
(42.8963°N, 1.0429°E)
Time: 09:01:56
(UTC+00:00)

ISS - Pass Details

Date: 22 February 2026
Orbit: 416 x 426 km, 51.6° (Epoch: 9 March)

Event Time Altitude Azimuth Distance (km) Brightness Sun altitude
Exits shadow 05:34:18 13° 323° (NW) 1,319 -1.6 -13.3°
Maximum altitude 05:36:01 18° 359° (N) 1,102 -1.7 -13.0°
Drops below altitude 10° 05:38:25 10° 44° (NE) 1,494 -0.3 -12.6°
Sets 05:40:59 0° 65° (ENE) 2,356 1.2 -12.1°
